Location: Grand Mazuras
(45.9128°N, 1.7636°E)
Time: 05:55:19
(UTC+00:00)

Cosmos 2219 Rocket - Pass Details

Date: 18 April 2021
Orbit: 826 x 848 km, 71.0° (Epoch: 15 May)

Event Time Altitude Azimuth Distance (km) Brightness Sun altitude
Rises 20:50:56 0° 325° (NW) 3,420 6.8 -20.0°
Reaches altitude 10° 20:53:38 10° 315° (NW) 2,481 5.8 -20.3°
Maximum altitude 20:58:31 30° 256° (WSW) 1,469 3.7 -20.9°
Enters shadow 21:02:48 13° 200° (SSW) 2,276 4.2 -21.5°
